Regional Weather Roundup
Issued by NWS

Home | Current Version | Previous Version | Text Only | Print | Product List | Glossary Off
Versions: 1 2 3 4 5 6 7 8 9 10 11 12 13 14 15 16 17 18 19 20 21 22 23 24 25 26 27 28 29 30 31 32 33 34 35 36 37 38 39 40 41 42 43 44 45 46 47 48 49 50

361
ASUS43 KLMK 232302
RWRKY
KENTUCKY REGIONAL WEATHER ROUNDUP
NATIONAL WEATHER SERVICE LOUISVILLE KY
600 PM EST FRI FEB 23 2018

NOTE "FAIR" INDICATES FEW OR NO CLOUDS BELOW 12,000 FEET
WITH NO SIGNIFICANT WEATHER AND/OR OBSTRUCTIONS TO VISIBILITY.

KYZ001>023-026-027-061>063-070>075-240000-
WESTERN AND SOUTH CENTRAL KENTUCKY

CITY           SKY/WX    TMP DP  RH WIND       PRES   REMARKS
PADUCAH        MOCLDY    56  53  90 CALM      30.23F
HENDERSON      FAIR      53  50  89 NW6       30.25R
OWENSBORO      CLOUDY    55  51  86 CALM      30.24S
HOPKINSVILLE   LGT RAIN  65  63  93 CALM      30.19F
BOWLING GREEN  FAIR      73  62  68 W3        30.19F
GLASGOW        NOT AVBL
$$

KYZ024-025-028>034-038-045-046-053-240000-
NORTH CENTRAL KENTUCKY

CITY           SKY/WX    TMP DP  RH WIND       PRES   REMARKS
LOUISVILLE/SDF CLOUDY    62  58  86 NW8       30.22R
LOUISVILLE/LOU MOCLDY    63  60  90 NW6       30.23S
FORT KNOX      CLOUDY    59  59  99 W5        30.23S
$$

KYZ035>037-039>044-047>052-055>060-089>105-240000-
NORTHEAST KENTUCKY

CITY           SKY/WX    TMP DP  RH WIND       PRES   REMARKS
LEXINGTON      MOCLDY    68  61  78 NW5       30.22R
COVINGTON      CLOUDY    58  56  93 W9        30.23R
FRANKFORT      MOCLDY    67  58  72 W3        30.21S
$$

KYZ054-064>069-076>088-106>120-240000-
SOUTHEAST KENTUCKY

CITY           SKY/WX    TMP DP  RH WIND       PRES   REMARKS
JACKSON        FAIR      73  53  49 W7        30.23S
LONDON         CLOUDY    74  54  49 SW3       30.23S
SOMERSET       NOT AVBL
MIDDLESBORO    MOCLDY    74  56  52 S5        30.25R
MONTICELLO     NOT AVBL
$$





USA.gov is the U.S. government's official web portal to all federal, state and local government web resources and services.